This demonstration page uses our WeatherBlox Daily Observations layout. Learn more.

Left ArrowRight Arrow

Hourly Observations for March 8, 2016

Temp ( °F °C ) Dew Point ( °F °C ) Humidity (%) Winds ( mph kmh ) Pressure ( in mb ) Visibility ( mi km ) Precip ( " mm )
12:54 am 00:54 Mostly Cloudy 64 17.8 57 13.9 78 78 S 17 28 29.56 1001 10 16 0.00 0.00
1:07 am 01:07 Mostly Cloudy 64 17.8 57 13.9 78 78 S 18 30 29.56 1001 10 16 0.00 0.00
1:38 am 01:38 Mostly Cloudy 64 18 57 14 78 78 S 20 31 29.56 1001 10 16 0.00 0.00
1:45 am 01:45 Partly Cloudy 64 17.8 57 13.9 78 78 S 18 30 29.56 1001 10 16 0.00 0.00
1:54 am 01:54 Mostly Clear 63 17.2 57 13.9 81 81 S 17 28 29.56 1001 10 16 0.00 0.00
2:54 am 02:54 Clear 62 16.7 57 13.9 84 84 S 12 19 29.56 1001 10 16 0.00 0.00
3:54 am 03:54 Mostly Cloudy 59 15 56 13.3 90 90 S 9 15 29.56 1001 8 13 0.00 0.00
4:54 am 04:54 Mostly Cloudy 59 15 56 13.3 90 90 S 10 17 29.57 1002 8 13 0.00 0.00
5:14 am 05:14 Mostly Cloudy 61 16 57 14 88 88 S 12 19 29.59 1002 8 13 0.00 0.00
5:54 am 05:54 Cloudy 56 13.3 48 8.9 75 75 WSW 16 26 29.62 1003 9 14 0.00 0.00
6:13 am 06:13 Mostly Cloudy 54 12 41 5 63 63 WSW 14 22 29.65 1004 10 16 0.00 0.00
6:26 am 06:26 Mostly Clear 51 10.6 41 5 69 69 W 9 15 29.65 1004 10 16 0.00 0.00
6:54 am 06:54 Sunny 49 9.4 39 3.9 69 69 WSW 8 13 29.66 1004 10 16 0.00 0.00
7:54 am 07:54 Sunny 49 9.4 39 3.9 69 69 WSW 8 13 29.70 1006 10 16 0.00 0.00
8:54 am 08:54 Sunny 51 10.6 39 3.9 64 64 W 13 20 29.73 1007 10 16 0.00 0.00
9:54 am 09:54 Sunny 57 13.9 41 5 55 55 W 9 15 29.76 1008 10 16 0.00 0.00
10:54 am 10:54 Sunny 61 16.1 41 5 48 48 WNW 12 19 29.76 1008 10 16 0.00 0.00
11:54 am 11:54 Sunny 63 17.2 42 5.6 47 47 W 10 17 29.76 1008 10 16 0.00 0.00
12:54 pm 12:54 Sunny 64 17.8 42 5.6 45 45 W 10 17 29.74 1007 10 16 0.00 0.00
1:54 pm 13:54 Sunny 65 18.3 41 5 42 42 W 12 19 29.74 1007 10 16 0.00 0.00
2:54 pm 14:54 Sunny 64 17.8 40 4.4 41 41 WNW 12 19 29.73 1007 10 16 0.00 0.00
3:54 pm 15:54 Sunny 64 17.8 40 4.4 41 41 WNW 9 15 29.72 1006 10 16 0.00 0.00
4:54 pm 16:54 Sunny 63 17.2 40 4.4 43 43 NW 8 13 29.73 1007 10 16 0.00 0.00
5:54 pm 17:54 Sunny 61 16.1 40 4.4 46 46 NNW 9 15 29.75 1007 10 16 0.00 0.00
6:54 pm 18:54 Clear 56 13.3 39 3.9 53 53 N 18 30 29.79 1009 10 16 0.00 0.00
7:54 pm 19:54 Clear 53 11.7 39 3.9 59 59 N 15 24 29.83 1010 10 16 0.00 0.00
8:54 pm 20:54 Clear 51 10.6 38 3.3 61 61 NNW 12 19 29.86 1011 10 16 0.00 0.00
9:54 pm 21:54 Clear 49 9.4 38 3.3 66 66 N 10 17 29.89 1012 10 16 0.00 0.00
10:54 pm 22:54 Clear 46 7.8 38 3.3 73 73 N 10 17 29.86 1011 10 16 0.00 0.00
11:54 pm 23:54 Clear 40 4.4 35 1.7 83 83 E 6 9 29.88 1012 10 16 0.00 0.00

Powered by AerisWeather